Flag for Germany Weather past 2 weeks in Wittenberge, Mecklenburg-Western Pomerania, Germany

Now
27 °F

Overcast.


Feels Like: 21 °F
Forecast: 19 / 29 °F
Wind: 5 mph from West

Location: Marnitz

Current Time: Dec 28, 2014 at 10:46:03 PM

Latest Report: Dec 28, 2014 at 10:00 PM


Visibility: 7 mi

Pressure: 30.30 "Hg

Humidity: 93%

Dew point: 25 °F

Location of WittenbergeLocation

Historic Weather in Wittenberge — Graph

°F

Wittenberge temperature yesterday

Maximum temperature yesterday: 28 °F (at 2:00 PM)
Minimum temperature yesterday: 22 °F (at 7:00 AM)
Average temperature yesterday: 25 °F

Past Weeks' High & Low Weather Summary

 TemperatureHumidityPressure
High53 °F (Dec 19, 12:00 AM)100% (Dec 14, 3:00 AM)30.34 "Hg (Dec 14, 3:00 AM)
Low17 °F (Dec 28, 7:00 AM)68% (Dec 25, 2:00 PM)29.57 "Hg (Dec 17, 6:00 PM)
Average39 °F91%29.87 "Hg
* Reported Dec 13 9:00 PM — Dec 28 9:00 PM, Wittenberge, Weather by CustomWeather, © 2014

Note: Actual official high and low records may vary slightly from our data, if they occured in-between our weather recording intervals... More about our weather records

Advertising

Wittenberge weather history for previous 24 hours

 ConditionsComfort  
Time TempWeatherWind HumidityBarometerVisibility
9:00 PM
Dec 28
27 °FOvercast.5 mph93%30.31 "Hg7 mi
8:00 PM28 °FOvercast.5 mph91%30.32 "Hg9 mi
7:00 PM27 °FOvercast.3 mph90%30.32 "Hg13 mi
6:00 PM27 °FOvercast.3 mph92%30.32 "Hg14 mi
5:00 PM27 °FOvercast.2 mph88%30.31 "Hg19 mi
4:00 PM28 °FClear.1 mph90%30.31 "Hg16 mi
3:00 PM32 °FSunny.1 mph80%30.28 "Hg9 mi
2:00 PM33 °FPassing clouds.1 mph74%30.27 "Hg8 mi
1:00 PM31 °FOvercast.1 mph86%30.26 "Hg9 mi
12:00 PM31 °FFog.3 mph86%30.25 "Hg4 mi
11:00 AM28 °FScattered clouds.2 mph88%30.24 "Hg6 mi
10:00 AM23 °FPassing clouds.2 mph91%30.21 "Hg5 mi
9:00 AM18 °FFog.1 mph94%30.19 "Hg4 mi
8:00 AM19 °FFog.1 mph93%30.15 "Hg4 mi
7:00 AM17 °FFog.1 mph93%30.13 "Hg4 mi
6:00 AM19 °FFog.2 mph93%30.11 "Hg4 mi
5:00 AM21 °FOvercast.3 mph92%30.09 "Hg5 mi
4:00 AM20 °FFog.3 mph93%30.07 "Hg4 mi
3:00 AM18 °FFog.2 mph95%30.04 "Hg4 mi
2:00 AM20 °FPassing clouds.3 mph93%30.02 "Hg6 mi
1:00 AM20 °FClear.2 mph92%29.99 "Hg7 mi
12:00 AM21 °FClear.2 mph89%29.97 "Hg8 mi
11:00 PM
Dec 27
22 °FPassing clouds.3 mph86%29.95 "Hg9 mi
10:00 PM23 °FPassing clouds.3 mph88%29.93 "Hg11 mi
Weather by CustomWeather, © 2014

See weather overviewHow to use our weather pages